This demonstration page uses our WeatherBlox Daily Observations layout. Learn more.

Left ArrowRight Arrow

36.17497, -115.13722

Hourly Observations for October 14, 2021

Temp ( °F °C ) Dew Point ( °F °C ) Humidity (%) Winds ( mph kmh ) Pressure ( in mb ) Visibility ( mi km ) Precip ( " mm )
12:53 am 00:53 Clear 55 12.8 28 -2.2 35 35 Calm 29.96 1015 10 16 0.00 0.00
1:53 am 01:53 Clear 53 11.7 29 -1.7 40 40 WNW 3 6 29.98 1015 10 16 0.00 0.00
2:53 am 02:53 Clear 52 11.1 29 -1.7 41 41 WNW 6 9 29.98 1015 10 16 0.00 0.00
3:53 am 03:53 Clear 51 10.6 27 -2.8 39 39 W 5 7 29.98 1015 10 16 0.00 0.00
4:53 am 04:53 Clear 51 10.6 28 -2.2 41 41 Calm 30.00 1016 10 16 0.00 0.00
5:53 am 05:53 Clear 50 10 29 -1.7 44 44 Calm 30.02 1017 10 16 0.00 0.00
6:53 am 06:53 Sunny 51 10.6 28 -2.2 41 41 WNW 3 6 30.04 1017 10 16 0.00 0.00
7:53 am 07:53 Sunny 53 11.7 29 -1.7 40 40 N 5 7 30.07 1018 10 16 0.00 0.00
8:53 am 08:53 Sunny 60 15.6 27 -2.8 28 28 N 7 11 30.09 1019 10 16 0.00 0.00
9:53 am 09:53 Sunny 62 16.7 26 -3.3 25 25 E 7 11 30.11 1020 10 16 0.00 0.00
10:53 am 10:53 Sunny 66 18.9 24 -4.4 20 20 ESE 9 15 30.11 1020 10 16 0.00 0.00
11:53 am 11:53 Sunny 69 20.6 23 -5 17 17 ENE 5 7 30.11 1020 10 16 0.00 0.00
12:53 pm 12:53 Sunny 70 21.1 22 -5.6 16 16 S 5 7 30.09 1019 10 16 0.00 0.00
1:53 pm 13:53 Sunny 72 22.2 23 -5 16 16 SE 13 20 30.06 1018 10 16 0.00 0.00
2:53 pm 14:53 Sunny 73 22.8 24 -4.4 16 16 E 8 13 30.06 1018 10 16 0.00 0.00
3:53 pm 15:53 Sunny 73 22.8 24 -4.4 16 16 VRB 3 6 30.06 1018 10 16 0.00 0.00
4:53 pm 16:53 Sunny 72 22.2 24 -4.4 17 17 ESE 7 11 30.07 1018 10 16 0.00 0.00
5:53 pm 17:53 Sunny 71 21.7 24 -4.4 17 17 E 5 7 30.08 1019 10 16 0.00 0.00
6:53 pm 18:53 Clear 70 21.1 24 -4.4 18 18 Calm 30.10 1019 10 16 0.00 0.00
7:53 pm 19:53 Clear 67 19.4 26 -3.3 21 21 SW 5 7 30.12 1020 10 16 0.00 0.00
8:53 pm 20:53 Clear 62 16.7 27 -2.8 26 26 WNW 5 7 30.15 1021 10 16 0.00 0.00
9:53 pm 21:53 Clear 61 16.1 27 -2.8 27 27 NNW 7 11 30.16 1022 10 16 0.00 0.00
10:53 pm 22:53 Clear 58 14.4 28 -2.2 32 32 Calm 30.19 1022 10 16 0.00 0.00
11:53 pm 23:53 Clear 59 15 27 -2.8 29 29 Calm 30.21 1023 10 16 0.00 0.00

Powered by AerisWeather